Orbital Elements at Epoch 2459000.5 (2020-May-31.0) TDB
Reference: JPL 14 (heliocentric ecliptic J2000)
Element | Value | Uncertainty (1-sigma) | Units |
e | .1941409638610078 | 4.1769e-08 | |
a | 2.31284932116316 | 1.0509e-08 | au |
q | 1.863830524687267 | 1.0012e-07 | au |
i | 24.79996817960129 | 6.8547e-06 | deg |
node | 289.4550010996914 | 1.3829e-05 | deg |
peri | 120.4544529645406 | 6.2974e-05 | deg |
M | 28.58524651629031 | 4.8085e-05 | deg |
tp | 2458898.486211100379 (2020-Feb-18.98621110) | 0.00017162 | TDB |
period | 1284.752397812436 3.52 | 8.7564e-06 2.397e-08 | d yr |
n | .2802096346447585 | 1.9098e-09 | deg/d |
Q | 2.761868117639054 | 1.2549e-08 | au |
|
| | Orbit Determination Parameters
Additional Information
|